Location: Monfort
(47.1967°N, 0.2115°W)
Time: 11:58:00
(UTC+00:00)

NOSS 3-4 (A) - Pass Details

Date: 24 October 2020
Orbit: 885 x 1327 km, 63.4° (Epoch: 06 November)

Event Time Altitude Azimuth Distance (km) Brightness Sun altitude
Rises 19:44:52 0° 319° (NW) 3,769 7.3 -29.1°
Reaches altitude 10° 19:47:27 10° 324° (NW) 2,875 6.5 -29.5°
Enters shadow 19:53:46 55° 30° (NNE) 1,347 4.0 -30.5°
